Location: Unspecified
(0.0000°N, 0.0000°E)
Time: 14:28:44
(UTC+00:00)

Altair - Pass Details

Date: 20 March 2026
Orbit: 1502 x 1682 km, 47.2° (Epoch: 18 April)

Event Time Altitude Azimuth Distance (km) Brightness Sun altitude
Exits shadow 03:01:41 - 8° (N) 3,877 9.6 -46.5°
Reaches altitude 10° 03:03:01 10° 15° (NNE) 3,664 9.6 -46.1°
Maximum altitude 03:07:41 15° 46° (NE) 3,326 9.6 -45.0°
Drops below altitude 10° 03:12:23 10° 77° (ENE) 3,723 10.1 -43.8°
Sets 03:17:26 0° 99° (E) 4,748 10.9 -42.5°
